sat.trackr.live / text

‹ back to catalog

STARLINK-33793

NORAD 64165 · 2025-112V

PAYLOAD ACTIVE UNKNOWN

§ Identity

Operator
Country
US
Launch date
2025-05-27
Launch site
AFWTR
Launch vehicle
Mass (kg)
RCS (m²)

Purposes: comms

External: N2YO · Heavens-Above · Gunter

§ Orbital elements

Epoch: 2026-05-25T03:38:00.507264Z

Period
95.64 min
Inclination
97.4488°
Eccentricity
0.0001652
Mean motion
15.05654249 rev/d
Perigee alt
548.4 km
Apogee alt
550.6 km
Semi-major
6,927.6 km
B*
7.2100e-4
RAAN
196.5286°
Arg perigee
122.0197°
Mean anomaly
238.1190°
Rev number
5,481

§ Raw data

STARLINK-337931 64165U 25112V   26145.15139476  .00010361  00000+0  72100-3 0  99902 64165  97.4488 196.5286 0001652 122.0197 238.1190 15.05654249 54810

JSON: /api/v1/satellites/64165 · /tle

For live sub-satellite position, see the globe view (requires WebGL).

§ Visibility from observer

Set your observer location to see the next 7 days of passes ≥ 10°. The values pass through the URL so the page stays shareable.

No JS? Fill the form by hand. The geolocation button needs JavaScript.